Weather in Surgut

Russia / Khanty-Mansi Autonomous Okrug — Yugra     61°15′14″N   73°23′46″E
temp.,
°C
wind,
m/s
gust,
m/s
humid.,
%
clouds,
%
prec.,
mm/h
press.,
hPa
HPBL,
m
14 may, fri
fri1423:00+6n245893 0.0 102594
02:00+5ene1162100 0.0 102510
05:00+5ssw2462100 0.0 1025131
08:00+9sw5947100 0.0 1022524
11:00+17sw9134086 0.0 1017988
14:00+22wsw1016395 0.1 10141292
17:00+27w8153214 0.1 10113453
20:00+23w613375 0.0 1010371
15 may, sat
sat1523:00+17sw335874 0.1 101252
02:00+14nw2271100 0.0 101227
05:00+12ne5972100 0.1 1013397
08:00+9ne797178 0.1 1016490
11:00+11ene557071 0.1 1017587
14:00+15e335998 0.0 1016804
17:00+16e3356100 0.0 1014717
20:00+14e6870100 0.4 1012445
16 may, sun
sun1623:00+11e587796 1.1 1013357
02:00+9ene5877100 0.0 1012283
05:00+7ne5775100 0.0 1013283
08:00+8ne4572100 0.0 1014463
11:00+10ene336696 0.0 1016670
14:00+13ne235662 0.0 10171117
17:00+14ne325573 0.0 10171004
20:00+12nne3363100 0.0 1017352
17 may, mon
mon1723:00+10e2468100 0.0 1017315
02:00+9sse367687 0.0 1016281
05:00+9sse3580100 0.0 1014196
08:00+8ese5889100 1.7 1012284
11:00+9ese5790100 3.4 1011313
14:00+10e3388100 0.0 1011292
17:00+10ene4587100 0.6 1010330
20:00+9ene3488100 0.0 1011339
18 may, tue
tue1823:00+8ene3691100 0.0 1011304
02:00+8ne3591100 0.0 1011321
05:00+8ne3691100 0.0 1012317
08:00+8ene3687100 0.0 1012356
11:00+8ene3584100 0.1 1013402
14:00+11ene4570100 0.1 1014837
17:00+11ne246498 0.1 1015855
20:00+10nw236691 0.0 101568